TimeCDT,TemperatureF,Dew PointF,Humidity,Sea Level PressureIn,VisibilityMPH,Wind Direction,Wind SpeedMPH,Gust SpeedMPH,PrecipitationIn,Events,Conditions,WindDirDegrees,DateUTC
12:54 AM,68.0,62.1,81,29.72,10.0,NW,6.9,-,0.00,Rain,Light Rain,310,2013-05-20 05:54:00
1:17 AM,69.8,60.8,73,29.78,9.0,West,18.4,31.1,0.02,Rain,Light Rain,270,2013-05-20 06:17:00
1:28 AM,66.2,60.8,83,29.80,5.0,West,15.0,31.1,0.07,Rain-Thunderstorm,Heavy Rain,260,2013-05-20 06:28:00
1:54 AM,64.0,60.1,87,29.76,10.0,WSW,8.1,-,0.09,,Mostly Cloudy,240,2013-05-20 06:54:00
2:54 AM,62.6,60.8,94,29.75,10.0,WSW,8.1,-,N/A,,Overcast,240,2013-05-20 07:54:00
3:15 AM,64.4,59.0,83,29.80,7.0,SW,10.4,-,0.02,Rain-Thunderstorm,Light Rain,220,2013-05-20 08:15:00
3:30 AM,62.6,59.0,88,29.79,7.0,SW,8.1,-,0.04,Rain,Light Rain,220,2013-05-20 08:30:00
3:38 AM,62.6,59.0,88,29.79,7.0,SSW,11.5,-,0.06,Rain-Thunderstorm,Rain,200,2013-05-20 08:38:00
3:54 AM,63.0,59.0,87,29.80,6.0,South,12.7,-,0.10,Rain-Thunderstorm,Rain,190,2013-05-20 08:54:00
4:14 AM,62.6,59.0,88,29.78,9.0,South,9.2,-,0.05,Rain,Light Rain,170,2013-05-20 09:14:00
4:54 AM,62.1,60.1,93,29.68,10.0,SE,17.3,21.9,0.06,Rain,Light Rain,130,2013-05-20 09:54:00
5:54 AM,62.1,59.0,90,29.75,10.0,SSW,11.5,-,0.01,,Clear,210,2013-05-20 10:54:00
6:54 AM,62.6,60.8,94,29.76,10.0,South,12.7,21.9,N/A,,Scattered Clouds,170,2013-05-20 11:54:00
7:54 AM,64.9,59.0,81,29.72,10.0,South,18.4,25.3,0.00,,Partly Cloudy,180,2013-05-20 12:54:00
8:54 AM,66.2,59.0,78,29.74,10.0,South,20.7,28.8,N/A,,Clear,180,2013-05-20 13:54:00
9:54 AM,70.0,60.1,71,29.73,10.0,South,19.6,25.3,N/A,,Clear,190,2013-05-20 14:54:00
10:54 AM,73.0,62.1,68,29.74,10.0,SW,15.0,21.9,N/A,,Clear,220,2013-05-20 15:54:00
11:54 AM,75.9,60.1,58,29.78,10.0,SW,19.6,28.8,N/A,,Clear,230,2013-05-20 16:54:00
12:42 PM,73.4,59.0,61,29.84,10.0,SW,19.6,40.3,N/A,Thunderstorm,Thunderstorm,230,2013-05-20 17:42:00
12:54 PM,70.0,60.1,71,29.82,10.0,SW,15.0,35.7,0.00,Rain-Thunderstorm,Light Thunderstorms and Rain,230,2013-05-20 17:54:00
1:12 PM,69.8,60.8,73,29.84,9.0,SSW,15.0,19.6,0.01,Rain,Light Rain,210,2013-05-20 18:12:00
1:54 PM,73.0,60.1,64,29.76,10.0,SSE,15.0,24.2,0.01,,Clear,160,2013-05-20 18:54:00
2:54 PM,79.0,61.0,54,29.76,10.0,South,12.7,-,N/A,,Clear,190,2013-05-20 19:54:00
3:54 PM,81.0,60.1,49,29.75,10.0,South,10.4,21.9,N/A,,Clear,180,2013-05-20 20:54:00
4:54 PM,80.1,61.0,52,29.73,10.0,SSE,17.3,-,N/A,,Clear,160,2013-05-20 21:54:00
5:54 PM,78.1,64.0,62,29.70,10.0,South,11.5,-,N/A,,Mostly Cloudy,170,2013-05-20 22:54:00
6:54 PM,75.9,64.9,69,29.67,10.0,SSE,9.2,-,0.00,,Mostly Cloudy,160,2013-05-20 23:54:00
7:15 PM,75.2,66.2,73,29.69,10.0,South,6.9,-,0.00,Rain-Thunderstorm,Light Thunderstorms and Rain,170,2013-05-21 00:15:00
7:50 PM,71.6,66.2,83,29.72,-9999.0,South,20.7,28.8,0.25,Rain-Thunderstorm,Heavy Thunderstorms and Rain,190,2013-05-21 00:50:00
7:54 PM,66.0,63.0,90,29.73,1.2,SW,19.6,28.8,0.32,Rain-Thunderstorm,Heavy Thunderstorms and Rain,220,2013-05-21 00:54:00
8:05 PM,62.6,60.8,94,29.73,0.5,NW,27.6,44.9,0.39,Fog-Rain,Heavy Rain,320,2013-05-21 01:05:00
8:11 PM,62.6,60.8,94,29.69,1.0,NNW,16.1,41.4,0.47,Rain-Thunderstorm,Heavy Thunderstorms and Rain,340,2013-05-21 01:11:00
8:15 PM,64.4,62.6,94,29.69,2.0,NNW,11.5,34.5,0.48,Rain-Thunderstorm,Heavy Thunderstorms and Rain,340,2013-05-21 01:15:00
8:21 PM,64.4,60.8,88,29.70,7.0,WNW,12.7,19.6,0.49,Rain-Thunderstorm,Light Thunderstorms and Rain,290,2013-05-21 01:21:00
8:40 PM,66.2,60.8,83,29.73,7.0,South,20.7,28.8,0.53,Rain,Rain,180,2013-05-21 01:40:00
8:54 PM,62.6,60.8,94,29.73,6.0,South,16.1,-,N/A,Rain,Rain,170,2013-05-21 01:54:00
9:02 PM,62.6,60.8,94,29.74,7.0,SSE,17.3,24.2,0.02,Rain-Thunderstorm,Light Thunderstorms and Rain,160,2013-05-21 02:02:00
9:30 PM,64.4,60.8,88,29.69,10.0,SSE,13.8,-,0.07,Rain,Light Rain,160,2013-05-21 02:30:00
9:54 PM,64.0,60.1,87,29.65,8.0,SSE,17.3,24.2,0.12,Rain,Rain,150,2013-05-21 02:54:00
10:54 PM,63.0,60.1,90,29.69,10.0,South,11.5,-,0.03,,Clear,190,2013-05-21 03:54:00
11:54 PM,63.0,60.1,90,29.69,10.0,South,11.5,-,N/A,,Clear,180,2013-05-21 04:54:00